Content
SEND FEEDBACK

Daily
Averages
Monthly
Summary
Sweden

HACKEFORS, SWEDEN


Home > Europe > Sweden
Elevation: 174 feet     Latitude: 58 24N     Longitude: 015 40E

WEATHER
 
SELECT A DAY
Number of Records: 83,385;   Date Range: 6/19/04 - 12/17/14
 
SHARE

PRINT THIS DATA

[ ← Previous Day ]
WEATHER ALMANAC - JANUARY 31, 2013
[ Next Day → ]
[ °C ]   °F
Weather ElementAverageHighLow
Temperature35 °F39.2 °F (12:20 am)28 °F (11:00 pm)
Dewpoint32.5 °F37.4 °F (9:50 am)26 °F (11:00 pm)
Humidity89.7 %100 % (7:50 am)72 % (1:00 am)
Barometer29.04 in29.30 in (11:00 pm)28.85 in (5:20 am)
Wind Speed11.2 mph17.9 mph (1:00 am)
Weather ElementAverage
Visibility11.6 mi
Wind DirectionWSW (259.6 °)

Weather ElementTotal
Precipitation---
Heating Degree Days31.4 (Base 65)
Averaged from 67 records on January 31, 2013
WEATHER CONDITIONS BREAKOUT
WIND DIRECTION BREAKOUT
WEATHER BY HOUR - JANUARY 31, 2013
[ °C ]   °F
Local TimeTemperatureDewpointHumidityBarometerVisibilityWind DirectionWind SpeedGust SpeedPrecipitationEventsConditions
12:20 AM39.2 °F33.8 °F81 %28.94 in6.2 miSW (230°)16.1 mphOvercast
12:50 AM39.2 °F33.8 °F81 %28.94 in6.2 miSW (230°)17.3 mphScattered Clouds
1:00 AM39.0 °F33.0 °F72 %28.96 in16.0 miSW (230°)17.9 mphClear
1:20 AM39.2 °F33.8 °F81 %28.91 in6.2 miSW (230°)17.3 mphMostly Cloudy
1:50 AM37.4 °F33.8 °F87 %28.91 in6.2 miSW (220°)17.3 mphPartly Cloudy
2:00 AM38.0 °F34.0 °F79 %28.93 in14.0 miSW (220°)15.7 mph
2:20 AM37.4 °F33.8 °F87 %28.91 in6.2 miSW (220°)16.1 mphMostly Cloudy
2:50 AM37.4 °F33.8 °F87 %28.91 in6.2 miSSW (210°)15.0 mphOvercast
3:00 AM38.0 °F35.0 °F84 %28.92 in19.0 miSW (220°)17.9 mphOvercast
3:20 AM37.4 °F35.6 °F93 %28.88 in6.2 miSSW (210°)16.1 mphOvercast
3:50 AM37.4 °F33.8 °F87 %28.88 in6.2 miSW (220°)12.7 mphOvercast
4:20 AM37.4 °F33.8 °F87 %28.88 in6.2 miSW (220°)12.7 mphOvercast
4:50 AM37.4 °F33.8 °F87 %28.88 in6.2 miSSW (210°)11.5 mphOvercast
5:00 AM38.0 °F34.0 °F81 %28.89 in31.0 miSSW (210°)11.2 mphOvercast
5:20 AM37.4 °F33.8 °F87 %28.85 in6.2 miSW (220°)13.8 mphOvercast
5:50 AM37.4 °F33.8 °F87 %28.85 in6.2 miSW (220°)12.7 mphOvercast
6:00 AM38.0 °F34.0 °F81 %28.88 in31.0 miSW (220°)13.4 mphOvercast
6:20 AM37.4 °F33.8 °F87 %28.85 in6.2 miSW (220°)11.5 mphLight Drizzle
6:50 AM37.4 °F33.8 °F87 %28.85 in6.2 miSSW (210°)12.7 mphRainLight Rain
7:00 AM37.0 °F35.0 °F87 %28.88 in12.0 miSW (220°)13.4 mphRainLight Rain
7:20 AM37.4 °F35.6 °F93 %28.85 in6.2 miSW (220°)11.5 mphMostly Cloudy
7:50 AM35.6 °F35.6 °F100 %28.85 in6.2 miSSW (210°)8.1 mphLight Drizzle
8:00 AM36.0 °F35.0 °F95 %28.89 in16.0 miSSW (210°)8.9 mphRainLight Drizzle
8:20 AM35.6 °F35.6 °F100 %28.88 in6.2 miSW (220°)8.1 mphMostly Cloudy
8:50 AM35.6 °F35.6 °F100 %28.88 in6.2 miSW (220°)6.9 mphLight Drizzle
9:00 AM36.0 °F36.0 °F98 %28.91 in7.0 miSW (220°)8.9 mphRainLight Drizzle
9:20 AM35.6 °F35.6 °F100 %28.88 in6.2 miSW (230°)6.9 mphLight Drizzle
9:50 AM37.4 °F37.4 °F100 %28.91 in4.3 miWest (260°)9.2 mphLight Drizzle
10:20 AM37.4 °F37.4 °F100 %28.94 in6.2 miWest (280°)10.4 mphMostly Cloudy
10:50 AM37.4 °F37.4 °F100 %28.94 in6.2 miWest (280°)9.2 mphLight Drizzle
11:00 AM38.0 °F37.0 °F95 %28.98 in12.0 miWest (280°)11.2 mphRainLight Drizzle
11:20 AM37.4 °F37.4 °F100 %28.97 in6.2 miWNW (290°)10.4 mphMostly Cloudy
11:50 AM37.4 °F35.6 °F93 %28.97 in6.2 miWNW (300°)10.4 mphRainLight Rain
12:00 PM37.0 °F36.0 °F95 %29.01 in12.0 miWNW (300°)11.2 mphRainLight Rain
12:20 PM37.4 °F35.6 °F93 %29.00 in6.2 miWNW (300°)10.4 mphRainLight Rain
12:50 PM37.4 °F35.6 °F93 %29.00 in6.2 miWNW (290°)9.2 mphMostly Cloudy
1:00 PM37.0 °F36.0 °F95 %29.05 in28.0 miWNW (290°)11.2 mph
1:20 PM37.4 °F35.6 °F93 %29.03 in6.2 miWNW (290°)11.5 mphMostly Cloudy
1:50 PM37.4 °F35.6 °F93 %29.06 in6.2 miWest (280°)12.7 mphMostly Cloudy
2:00 PM37.0 °F35.0 °F92 %29.09 in16.0 miWest (280°)13.4 mphPartly Cloudy
2:20 PM37.4 °F33.8 °F87 %29.09 in6.2 miWNW (290°)13.8 mphMostly Cloudy
2:50 PM35.6 °F33.8 °F93 %29.09 in6.2 miWNW (290°)13.8 mphScattered Clouds
3:00 PM36.0 °F33.0 °F83 %29.12 in31.0 miWNW (300°)13.4 mphScattered Clouds
3:20 PM35.6 °F32.0 °F87 %29.12 in6.2 miWNW (300°)12.7 mphPartly Cloudy
3:50 PM33.8 °F32.0 °F93 %29.12 inWNW (290°)10.4 mphClear
4:20 PM33.8 °F30.2 °F87 %29.12 inWNW (290°)10.4 mphClear
4:50 PM32.0 °F30.2 °F93 %29.15 inWNW (290°)10.4 mphClear
5:00 PM33.0 °F30.0 °F84 %29.17 in31.0 miWest (280°)11.2 mphScattered Clouds
5:20 PM32.0 °F30.2 °F93 %29.15 inWNW (290°)11.5 mphClear
5:50 PM32.0 °F28.4 °F87 %29.18 inWNW (290°)10.4 mphClear
6:00 PM32.0 °F29.0 °F84 %29.19 in31.0 miWNW (290°)8.9 mphScattered Clouds
6:20 PM32.0 °F28.4 °F87 %29.18 inWNW (290°)11.5 mphClear
6:50 PM32.0 °F28.4 °F87 %29.18 in6.2 miWest (280°)9.2 mphPartly Cloudy
7:00 PM31.0 °F28.0 °F86 %29.22 in31.0 miWest (280°)8.9 mph
7:20 PM32.0 °F28.4 °F87 %29.21 in6.2 miWest (280°)8.1 mphPartly Cloudy
7:50 PM30.2 °F28.4 °F93 %29.21 inWest (280°)10.4 mphClear
8:00 PM31.0 °F28.0 °F81 %29.25 in31.0 miWNW (290°)8.9 mphScattered Clouds
8:20 PM30.2 °F26.6 °F86 %29.24 inWNW (290°)8.1 mphClear
8:50 PM30.2 °F28.4 °F93 %29.24 inWest (280°)8.1 mphClear
9:00 PM30.0 °F27.0 °F84 %29.27 in25.0 miWest (280°)8.9 mph
9:20 PM30.2 °F26.6 °F86 %29.24 inWNW (300°)9.2 mphClear
9:50 PM30.2 °F26.6 °F86 %29.27 in6.2 miWest (280°)8.1 mph
10:20 PM28.4 °F26.6 °F93 %29.27 in6.2 miWNW (290°)6.9 mph
10:50 PM28.4 °F26.6 °F93 %29.27 in6.2 miWNW (290°)6.9 mph
11:00 PM28.0 °F26.0 °F91 %29.30 in31.0 miWNW (300°)6.7 mph
11:20 PM28.4 °F26.6 °F93 %29.27 in6.2 miWest (270°)6.9 mph
11:50 PM28.4 °F26.6 °F93 %29.27 in6.2 miWest (270°)5.8 mph
Hourly data recorded from ESSL, located miles away from Hackefors, Sweden







STORIES FROM OUR PARTNERS